Regional Weather Roundup
Issued by NWS

Home | Current Version | Previous Version | Graphics & Text | Print | Product List | Glossary On
Versions: 1 2 3 4 5 6 7 8 9 10 11 12 13 14 15 16 17 18 19 20 21 22 23 24 25 26 27 28 29 30 31 32 33 34 35 36 37 38 39 40 41 42 43 44 45 46 47 48 49 50
000
ASUS43 KFSD 220510
RWRSD

WEATHER ROUNDUP FOR SOUTH DAKOTA
NATIONAL WEATHER SERVICE SIOUX FALLS SD
1200 AM CDT SAT JUL 22 2017

NOTE: "FAIR" INDICATES FEW OR NO CLOUDS BELOW 12,000 FEET WITH NO
SIGNIFICANT WEATHER AND/OR OBSTRUCTIONS TO VISIBILITY.


SDZ001>005-009-010-012>017-220600-
NORTHWEST AND NORTH CENTRAL SOUTH DAKOTA

CITY           SKY/WX    TMP DP  RH WIND       PRES   REMARKS
BUFFALO          N/A     75  38  26 N10       29.88F
FAITH            N/A     72  47  40 NW9       29.90S
MOBRIDGE       PTCLDY    73  67  81 CALM      29.80R
$$

SDZ012>016-024>037-041>051-057-063-072>074-220600-
SOUTHWEST AND SOUTH CENTRAL SOUTH DAKOTA

CITY           SKY/WX    TMP DP  RH WIND       PRES   REMARKS
RAPID CTY ARPT MOCLDY    74  43  32 N10       29.94F
PIERRE         PTCLDY    76  67  73 N9        29.77S
CUSTER         CLOUDY    66  39  37 NE9       30.13F
ELLSWORTH AFB  CLOUDY    81  38  21 N14       29.95F
PHILIP         PTCLDY    81  53  37 N15       29.86S
PINE RIDGE     MOCLDY    70  63  78 E3        29.97S
SPEARFISH      FAIR      66  41  39 S6        30.03F
WINNER         FAIR      83  61  47 W10       29.79F
$$

SDZ004>011-016>023-039-040-220600-
NORTHEAST SOUTH DAKOTA

CITY           SKY/WX    TMP DP  RH WIND       PRES   REMARKS
ABERDEEN       CLOUDY    70  64  81 SE10      29.78S
WATERTOWN      CLOUDY    76  72  87 SE6       29.78F
BROOKINGS      PTCLDY    76  72  87 E9        29.81R
SISSETON         N/A     75  70  84 N10       29.79F
$$

SDZ017-020-022-023-036>040-048>070-220600-
SOUTHEAST SOUTH DAKOTA

CITY           SKY/WX    TMP DP  RH WIND       PRES   REMARKS
SIOUX FALLS    PTCLDY    76  75  97 E7        29.78S
HURON          CLOUDY    74  67  78 NE10      29.82R THUNDER
CHAMBERLAIN    CLEAR     82  77  86 SW3       29.74F
MITCHELL       CLEAR     76  74  93 E6        29.75R
YANKTON        CLOUDY    77  75  93 E7        29.76R
$$

ABBREVIATIONS USED IN REMARKS
   TC - TEMPERATURE IN CELSIUS
  WCI - WIND CHILL INDEX
   HX - HEAT INDEX
  VSB - VISIBILITY





USA.gov is the U.S. government's official web portal to all federal, state and local government web resources and services.